[[{"header":{"parameterUnit":"m.s-1","parameterCategory":1,"la1":30.2991,"la2":30.254,"lo1":-89.0895,"lo2":-89.0444,"dy":0.0017,"dx":0.0017,"nx":28,"ny":28,"refTime":"2025-07-19T03:00:00:Z","depth":0,"parameterNumber":2,"parameterNumberName":"U-component_of_WINDS"},"data":[0,0,0,0,0,0,0,0,0,0,0,0,0,0,0,0,0,0,0,0,0,0,0,0,0,0,0,0,0,0,0,0,0,0,0,0,0,0,0,0,0,0,0,0,0,0,0,0,0,0,0,0,0,0,0,0,0,0,1.3795,1.3794,0,1.3739,1.3739,1.3738,1.3651,1.3649,1.3647,1.3646,1.359,1.359,1.359,0,0,0,0,0,0,0,0,0,0,0,0,0,1.3824,1.3824,1.3795,1.3794,1.3793,1.374,1.3739,1.3738,1.3651,1.3649,1.3647,1.3645,1.359,1.359,1.359,0,0,0,0,0,0,0,0,0,0,0,0,0,1.3794,1.3824,1.3795,1.3743,1.3738,1.374,1.3739,1.3738,1.3651,1.3649,1.3646,1.3644,1.359,1.359,1.359,1.3638,0,0,1.359,1.359,0,0,0,0,0,0,0,0,1.3796,1.3793,1.3752,1.3747,1.3741,1.3699,1.3729,1.3704,1.3652,1.3684,1.3646,1.3643,1.3629,1.3625,1.362,1.3635,1.3633,1.359,1.359,1.359,1.359,0,0,0,0,0,0,0,1.3798,1.3795,1.3773,1.3751,1.3745,1.3723,1.3716,1.3724,1.3671,1.3681,1.3675,1.3669,1.3625,1.362,1.3618,1.3632,1.359,1.359,1.359,1.359,1.3681,1.3683,0,0,0,0,0,0,1.3808,1.3797,1.3775,1.3771,1.3763,1.3724,1.3716,1.3715,1.367,1.3661,1.3671,1.3666,1.3622,1.3618,1.3616,1.3666,1.359,1.359,1.359,1.3678,1.3681,1.3684,0,0,0,0,0,0,1.3809,1.3807,1.3777,1.3782,1.3777,1.3726,1.3725,1.3715,1.371,1.3663,1.3653,1.3676,1.362,1.3616,1.3632,1.3663,1.359,1.359,1.3675,1.3679,1.3682,1.3769,0,0,0,0,0,0,1.381,1.3808,1.3825,1.3784,1.3777,1.3795,1.3727,1.3716,1.371,1.3702,1.3665,1.3656,1.3617,1.3633,1.3632,1.3662,1.359,1.3672,1.3677,1.3681,1.3763,1.3775,1.3786,0,0,0,0,0,1.3811,1.3853,1.3827,1.3825,1.3798,1.3797,1.3793,1.3747,1.3714,1.373,1.3699,1.3657,1.366,1.3635,1.3634,1.3664,1.367,1.3676,1.3681,1.3758,1.3773,1.3785,0,0,0,0,0,0,1.3901,1.3847,1.3817,1.3846,1.3827,1.3782,1.3802,1.3765,1.3754,1.3747,1.3691,1.3683,1.3706,1.3687,1.366,1.3706,1.3659,1.3664,1.3718,1.3731,1.3742,1.3746,1.359,0,0,0,0,0,1.3924,1.3927,1.388,1.391,1.3901,1.3854,1.3851,1.3818,1.3795,1.3787,1.3757,1.3737,1.3732,1.3731,1.3725,1.3761,1.375,1.378,1.3792,1.3801,1.3806,1.382,1.3833,1.3701,1.3701,1.3701,0,0,1.3972,1.3942,1.3948,1.3927,1.3908,1.3911,1.3847,1.3855,1.3857,1.3788,1.38,1.3778,1.3752,1.3777,1.3787,1.3762,1.384,1.3808,1.3816,1.3815,1.3827,1.384,1.3851,1.3705,1.3704,1.3704,0,0,1.406,1.4039,1.406,1.4042,1.4013,1.3981,1.3987,1.3947,1.3929,1.3941,1.3889,1.389,1.3885,1.3868,1.3858,1.3938,1.3898,1.3938,1.3995,1.401,1.4021,1.4029,1.4055,1.4066,1.3943,1.3943,1.3944,0,1.4123,1.4126,1.4077,1.4086,1.4078,1.4015,1.4036,1.4021,1.3992,1.3987,1.3959,1.395,1.3928,1.3947,1.3966,1.3962,1.3964,1.3941,1.4023,1.4031,1.4039,1.4063,1.4073,1.3948,1.3948,1.3947,1.3947,0,1.4203,1.4207,1.4228,1.42,1.4194,1.421,1.4162,1.4162,1.4129,1.4099,1.4111,1.4082,1.4068,1.407,1.4039,1.4084,1.4069,1.4033,1.3984,1.4057,1.4079,1.4088,1.3955,1.3953,1.3952,1.3951,0,0,1.4346,1.429,1.4298,1.4284,1.4247,1.4248,1.426,1.4246,1.4245,1.4228,1.4235,1.4232,1.4197,1.4187,1.4152,1.4166,1.4227,1.4127,1.4126,1.4145,1.4273,1.4299,1.431,1.4201,1.4203,1.4204,1.4274,0,1.4425,1.4442,1.4397,1.4425,1.4426,1.4366,1.4376,1.4354,1.4326,1.4323,1.4293,1.429,1.4246,1.4239,1.425,1.4218,1.4252,1.4212,1.4206,1.4206,1.4212,1.4322,1.435,1.4417,1.4283,1.4284,1.4285,0,1.4519,1.4505,1.4533,1.4492,1.4491,1.4501,1.4482,1.448,1.4454,1.4433,1.442,1.4379,1.4387,1.4341,1.435,1.4324,1.4318,1.4302,1.4304,1.43,1.4249,1.4319,1.4438,1.4448,1.4299,1.4298,1.4297,0,1.4617,1.4605,1.4619,1.4609,1.4563,1.4571,1.4552,1.4523,1.4516,1.4501,1.4495,1.4481,1.4473,1.4463,1.4419,1.439,1.4432,1.4383,1.4413,1.4414,1.4424,1.4423,1.4542,1.4424,1.4424,1.4424,1.4424,0,1.4709,1.4728,1.4662,1.4671,1.4689,1.4638,1.4657,1.4632,1.4607,1.4609,1.4557,1.456,1.4503,1.4499,1.4465,1.4476,1.4473,1.4455,1.4446,1.4459,1.4461,1.4453,1.4447,1.4427,1.4426,1.4425,1.4425,0,1.4821,1.4778,1.4789,1.4744,1.4733,1.4749,1.4709,1.4715,1.4684,1.4687,1.4685,1.4636,1.4629,1.4584,1.4568,1.4544,1.4567,1.4549,1.4576,1.4569,1.4601,1.4598,1.4717,1.4729,1.4607,1.4608,1.4609,0,1.4881,1.4894,1.4849,1.4847,1.483,1.4827,1.4819,1.4768,1.4763,1.4732,1.4741,1.4729,1.4717,1.4708,1.4671,1.4657,1.4637,1.468,1.4635,1.4647,1.4635,1.4634,1.4634,1.4689,1.4691,1.4692,1.4693,0,1.4991,1.4969,1.496,1.4943,1.4936,1.492,1.4902,1.4903,1.4846,1.4842,1.4834,1.4824,1.4806,1.4795,1.4774,1.4754,1.4714,1.4708,1.4713,1.4726,1.474,1.473,1.4599,1.4705,1.4704,1.4703,1.4702,1.4702,1.5077,1.5085,1.5054,1.5045,1.5026,1.5009,1.5011,1.498,1.4972,1.4953,1.4924,1.4919,1.489,1.4858,1.4841,1.4836,1.4813,1.4822,1.4824,1.4826,1.4832,1.4742,1.4832,1.4832,1.4831,1.4831,1.4831,0,1.5182,1.5159,1.5152,1.5127,1.512,1.5083,1.506,1.5056,1.5052,1.5029,1.5018,1.5007,1.4995,1.4957,1.4941,1.4944,1.4925,1.4941,1.4939,1.4935,1.4855,1.485,1.4956,1.4956,1.4956,1.4956,1.4956,1.4956,1.5236,1.5246,1.522,1.5219,1.5196,1.519,1.518,1.5164,1.5145,1.5135,1.5125,1.51,1.5069,1.5051,1.5038,1.5026,1.5022,1.5044,1.5027,1.4953,1.4941,1.4929,1.4924,1.5044,1.5044,1.5106,1.5107,1.5107]},{"header":{"parameterUnit":"m.s-1","parameterCategory":1,"la1":30.2991,"la2":30.254,"lo1":-89.0895,"lo2":-89.0444,"dy":0.0017,"dx":0.0017,"nx":28,"ny":28,"refTime":"2025-07-19T03:00:00:Z","depth":0,"parameterNumber":3,"parameterNumberName":"V-component_of_WINDS"},"data":[0,0,0,0,0,0,0,0,0,0,0,0,0,0,0,0,0,0,0,0,0,0,0,0,0,0,0,0,0,0,0,0,0,0,0,0,0,0,0,0,0,0,0,0,0,0,0,0,0,0,0,0,0,0,0,0,0,0,4.6827,4.6827,0,4.6874,4.6875,4.6875,4.6826,4.6824,4.6822,4.682,4.6865,4.6868,4.6871,0,0,0,0,0,0,0,0,0,0,0,0,0,4.6687,4.669,4.6827,4.6827,4.6828,4.6874,4.6875,4.6876,4.6826,4.6824,4.6821,4.6819,4.6864,4.6868,4.6871,0,0,0,0,0,0,0,0,0,0,0,0,0,4.6743,4.6691,4.6827,4.6809,4.6808,4.6874,4.6875,4.6876,4.6826,4.6824,4.6821,4.6818,4.6863,4.6867,4.6872,4.6957,0,0,4.6885,4.6887,0,0,0,0,0,0,0,0,4.674,4.6748,4.6811,4.681,4.6809,4.6841,4.6842,4.6903,4.6827,4.6819,4.682,4.6817,4.6859,4.6864,4.6879,4.6959,4.6961,4.6886,4.6889,4.6891,4.6892,0,0,0,0,0,0,0,4.6736,4.6746,4.6845,4.6812,4.6811,4.6797,4.6801,4.6854,4.6855,4.682,4.6816,4.6823,4.6858,4.6875,4.688,4.6962,4.6886,4.689,4.6893,4.6894,4.7111,4.7114,0,0,0,0,0,0,4.6735,4.6743,4.6844,4.6847,4.6767,4.6802,4.6807,4.6834,4.6854,4.6854,4.6825,4.682,4.6869,4.6875,4.6881,4.698,4.6891,4.6895,4.6897,4.7108,4.7112,4.7115,0,0,0,0,0,0,4.6732,4.6744,4.6842,4.6794,4.6805,4.6807,4.6838,4.6836,4.6853,4.6858,4.6858,4.6842,4.6867,4.6875,4.6938,4.6981,4.6897,4.6901,4.7104,4.7109,4.7113,4.718,0,0,0,0,0,0,4.6728,4.6744,4.6777,4.6795,4.6808,4.69,4.684,4.6839,4.6861,4.6855,4.6874,4.6874,4.6865,4.6932,4.6943,4.6986,4.6904,4.7101,4.7107,4.7112,4.7174,4.7186,4.7197,0,0,0,0,0,4.6723,4.6794,4.6779,4.6792,4.6851,4.6903,4.691,4.6898,4.6865,4.6897,4.6901,4.6874,4.6975,4.6939,4.695,4.6995,4.7098,4.7105,4.7112,4.7169,4.7184,4.7197,0,0,0,0,0,0,4.678,4.6796,4.678,4.6859,4.688,4.6894,4.6935,4.6915,4.6945,4.6938,4.6922,4.6927,4.6993,4.7001,4.696,4.7077,4.7031,4.704,4.707,4.7084,4.7096,4.7091,4.6908,0,0,0,0,0,4.6802,4.6845,4.6856,4.6924,4.6935,4.6934,4.6956,4.6945,4.6966,4.6974,4.6982,4.7002,4.7038,4.7062,4.7095,4.7175,4.7177,4.7212,4.7223,4.7233,4.724,4.728,4.7295,4.7138,4.7138,4.7138,0,0,4.6848,4.6861,4.6889,4.6936,4.6951,4.6993,4.6941,4.6989,4.7019,4.6981,4.7041,4.7047,4.7068,4.714,4.7171,4.7148,4.7285,4.7241,4.7249,4.7252,4.7289,4.7304,4.7317,4.7142,4.7142,4.7141,0,0,4.6951,4.6967,4.7025,4.7041,4.7064,4.7062,4.7076,4.7094,4.7096,4.7157,4.7128,4.7163,4.7226,4.7242,4.7258,4.7366,4.7341,4.7377,4.7436,4.7475,4.7488,4.7498,4.7534,4.7548,4.7385,4.7385,4.7386,0,4.7004,4.7068,4.7056,4.7105,4.7125,4.7094,4.715,4.7166,4.7199,4.7213,4.7186,4.7263,4.7275,4.7348,4.7375,4.739,4.7403,4.7374,4.7487,4.7498,4.7508,4.7542,4.7556,4.7389,4.7389,4.7389,4.7388,0,4.713,4.7175,4.7218,4.7251,4.7276,4.7329,4.7323,4.735,4.7337,4.7337,4.7398,4.7411,4.7445,4.7462,4.745,4.7533,4.7518,4.749,4.7442,4.7527,4.7558,4.7572,4.7395,4.7394,4.7393,4.7392,0,0,4.7271,4.7296,4.7312,4.7325,4.7349,4.7382,4.7432,4.7467,4.7488,4.7512,4.7552,4.7606,4.7579,4.7597,4.7587,4.7622,4.7703,4.7589,4.7589,4.7607,4.7792,4.7811,4.7826,4.7687,4.769,4.7692,4.7789,0,4.7373,4.7461,4.7451,4.7534,4.7573,4.7543,4.7586,4.7604,4.7606,4.7638,4.7639,4.7676,4.764,4.7651,4.7684,4.7686,4.7739,4.7679,4.7722,4.7724,4.7715,4.7843,4.7864,4.7955,4.7802,4.7804,4.7805,0,4.7504,4.7532,4.7619,4.7634,4.765,4.769,4.7719,4.7751,4.777,4.7768,4.7789,4.7771,4.7819,4.7772,4.7837,4.7796,4.7813,4.7816,4.7819,4.7821,4.7768,4.7846,4.7984,4.7997,4.7825,4.7824,4.7822,0,4.7594,4.7654,4.7713,4.7726,4.7746,4.7774,4.7783,4.7799,4.782,4.7845,4.7858,4.7889,4.7905,4.7929,4.7919,4.7886,4.7985,4.7938,4.7983,4.7983,4.8003,4.8002,4.8144,4.8019,4.8018,4.8018,4.8018,0,4.7708,4.7761,4.7754,4.779,4.7848,4.7836,4.7894,4.7899,4.7913,4.7949,4.7925,4.7958,4.7945,4.7977,4.797,4.8023,4.8031,4.8029,4.8026,4.803,4.803,4.8039,4.8032,4.8022,4.8021,4.802,4.802,0,4.7817,4.7815,4.7877,4.7891,4.7895,4.7937,4.7948,4.7981,4.798,4.8025,4.8035,4.8034,4.807,4.8063,4.8103,4.8098,4.8164,4.8155,4.8158,4.8155,4.8199,4.8194,4.8351,4.8369,4.8234,4.8236,4.8237,0,4.7889,4.793,4.7947,4.7969,4.7981,4.8017,4.8038,4.8027,4.8049,4.8073,4.8102,4.8137,4.8163,4.8222,4.8224,4.8254,4.8243,4.8296,4.8247,4.8249,4.8241,4.8237,4.824,4.8305,4.8306,4.8307,4.8308,0,4.8015,4.8012,4.8043,4.8074,4.81,4.8123,4.8144,4.8163,4.8154,4.818,4.8217,4.8238,4.8278,4.8311,4.8339,4.8347,4.8325,4.8324,4.8335,4.8339,4.8338,4.8336,4.8181,4.832,4.8319,4.8318,4.8317,4.8317,4.8106,4.814,4.8157,4.8192,4.8207,4.8227,4.8258,4.8261,4.8292,4.8324,4.8316,4.8357,4.8373,4.8408,4.8419,4.845,4.843,4.8447,4.8451,4.8455,4.8459,4.8335,4.8455,4.8455,4.8454,4.8454,4.8454,0,4.8229,4.8238,4.8271,4.8301,4.8328,4.8307,4.8329,4.8352,4.8389,4.8406,4.8433,4.8474,4.8506,4.851,4.854,4.8564,4.8555,4.8572,4.8569,4.857,4.8477,4.8462,4.8579,4.8579,4.8579,4.8579,4.8578,4.8578,4.8295,4.835,4.8349,4.841,4.8419,4.8459,4.8473,4.849,4.8504,4.8551,4.8578,4.8581,4.8592,4.8622,4.865,4.865,4.8661,4.8681,4.8678,4.859,4.8577,4.8565,4.8552,4.8684,4.8685,4.8768,4.8769,4.8769]}]]